HIMAWARI-8

Last updated on Sun Jun 21 2026 00:02:46 GMT+0000 (Coordinated Universal Time)

1 40267U 14060A 26171.46088416 -.00000280 00000+0 00000+0 0 9993 2 40267 0.0187 51.4118 0001168 42.2924 121.5465 1.00270806 42796
UTC large
Height (km)
Speed (km/s)
/
Latitude / Longitude
Inclination (degrees)
Orbital Period (minutes)
Azimuth
Elevation
Range (km)
Doppler Factor

Next 0 passes for location: London (51.5072 / 0.1276)

No passes found over London.
HIMAWARI-8